x

9414863 - Richmond, Ca (rcmc1) Weather Station

2:54pm - Mon 22nd Oct 2018 All times are PDT. -7 hours from GMT.

  • Wind
    6mph, 8mph gusts
  • Sea Temp 62°f
  • Air Temp 61°f
  • Sea Pressure 1013.2mb
  • 9414863 - Richmond, Ca
  • 9414863 - Richmond, Ca

More Historic Weather Station data

Upgrade to MSW Pro to gain access to the past 30 days of data for over 8000 Wavebouys and Weather Stations around the globe.

Join

Comparision Forecast

View Surf forecast
   
Mon 10/22 2:54pm 6 8 mph 1013.2mb 62f 61f
2:48pm 6 8 mph 1013.2mb 62f 61f
2:42pm 6 9 mph 1013.3mb 62f 61f
2:36pm 6 8 mph 1013.3mb 62f 61f
2:30pm 6 9 mph 1013.4mb 62f 61f
2:24pm 5 8 mph 1013.4mb 62f 61f
2:18pm 7 9 mph - - -
2:12pm 6 8 mph 1013.5mb 62f 60f
2:06pm 7 8 mph 1013.6mb 62f 60f
2:00pm 7 9 mph 1013.7mb 62f 59f
1:54pm 7 9 mph 1013.8mb 62f 59f
1:48pm 7 10 mph 1013.9mb 62f 59f
1:42pm 8 10 mph 1013.9mb 62f 59f
1:36pm 6 10 mph 1013.9mb 62f 59f
1:30pm 8 10 mph 1014mb 62f 59f
1:24pm 6 8 mph 1014.1mb 62f 59f
1:18pm 5 8 mph 1014.2mb 62f 59f
1:12pm 5 9 mph 1014.3mb 62f 58f
1:06pm 5 8 mph 1014.4mb 62f 59f
1:00pm 3 8 mph - - -
12:54pm 6 7 mph 1014.5mb 62f 58f
12:48pm 5 6 mph 1014.6mb 62f 58f
12:42pm 3 7 mph 1014.7mb 62f 58f
12:36pm 5 7 mph 1014.7mb 62f 57f
12:30pm 3 6 mph 1014.7mb 62f 57f
12:24pm 3 5 mph 1014.8mb 62f 58f
12:18pm 2 3 mph - - -
12:12pm 3 5 mph 1014.8mb 62f 57f
12:06pm 3 5 mph 1014.9mb 62f 57f
12:00pm 2 5 mph 1015mb 62f 57f
11:54am 3 5 mph 1015mb 62f 57f
11:48am 1 3 mph 1015mb 62f 57f
11:42am 1 5 mph 1015.1mb 62f 57f
11:36am 1 5 mph 1015.1mb 62f 56f
11:30am 1 3 mph 1015.1mb 62f 56f
11:24am 2 3 mph 1015.1mb 62f 55f
11:18am 3 6 mph 1015.2mb 62f 55f
11:12am 3 6 mph 1015.2mb 62f 55f
11:06am 3 6 mph 1015.1mb 62f 55f
11:00am 2 6 mph 1015.2mb 62f 55f
10:54am 2 3 mph 1015.2mb 62f 55f
10:48am 1 2 mph 1015.2mb 62f -
10:42am  -  3 mph 1015.2mb 62f 55f
10:36am 3 7 mph 1015.3mb 62f 55f
10:30am 5 7 mph 1015.3mb 62f 55f
10:24am 3 6 mph 1015.3mb 62f 55f
10:18am 2 3 mph 1015.3mb 62f 55f
10:12am 2 5 mph 1015.3mb 62f 54f
10:06am 3 5 mph 1015.3mb 62f 54f
10:00am 3 6 mph 1015.3mb 62f 55f
9:54am 2 5 mph 1015.3mb 62f 55f
9:48am 3 7 mph 1015.3mb 62f 55f
9:42am 5 6 mph 1015.3mb 62f 54f
9:36am 3 6 mph 1015.3mb 62f 54f
9:30am 5 6 mph 1015.3mb 62f 54f
9:24am 5 6 mph 1015.3mb 62f 54f
9:18am 3 6 mph 1015.2mb 62f 54f
9:12am 5 6 mph 1015.2mb 62f 55f
9:06am 5 6 mph 1015.2mb 62f 54f
9:00am 5 7 mph 1015.2mb 62f 54f
8:54am 5 7 mph 1015.1mb 62f 55f
8:48am 5 6 mph 1015mb 62f 55f
8:42am 5 7 mph 1014.9mb 62f 55f
8:36am 3 6 mph 1014.8mb 62f 55f
8:30am 2 6 mph 1014.7mb 62f 55f
8:24am 2 5 mph 1014.7mb 62f 55f
8:18am 3 6 mph 1014.6mb 62f -
8:12am  -  2 mph 1014.6mb 62f 55f
8:06am 2 3 mph 1014.5mb 62f 55f
8:00am 1 3 mph 1014.4mb 62f 55f
7:54am 2 3 mph 1014.4mb 62f 55f
7:48am 3 5 mph 1014.3mb 62f 55f
7:42am 2 5 mph 1014.2mb 62f 55f
7:36am 2 6 mph 1014.2mb 62f 55f
7:30am 2 6 mph 1014.1mb 62f 55f
7:24am 5 6 mph 1014.1mb 62f 55f
7:18am 3 5 mph 1014.2mb 62f 55f
7:12am  -  3 mph 1014.2mb 62f 55f
7:06am 1 3 mph 1014.2mb 62f 55f
7:00am  -  3 mph 1014.2mb 62f 55f
6:54am 2 3 mph 1014.2mb 62f 55f
6:48am 1 3 mph 1014.2mb 62f 55f
6:42am 2 3 mph 1014.2mb 62f 55f
6:36am 2 3 mph 1014.2mb 62f 55f
6:30am 1 2 mph 1014.2mb 62f 55f
6:24am  -  2 mph 1014.2mb 62f 55f
6:18am 2 3 mph 1014.2mb 62f 55f
6:12am  -  3 mph 1014.2mb 62f 55f
6:06am 1 2 mph 1014.2mb 62f 55f
6:00am 1 3 mph 1014.2mb 62f 55f
5:54am 3 5 mph 1014.3mb 62f 55f
5:48am 2 5 mph 1014.3mb 62f 55f
5:42am 1 3 mph 1014.2mb 62f 55f
5:36am 1 3 mph 1014.2mb 62f 55f
5:30am 1 5 mph 1014.3mb 62f 55f
5:24am 3 3 mph 1014.2mb 62f 55f
5:18am 2 5 mph 1014.1mb 62f 55f
5:12am  -  5 mph 1014.2mb 62f 55f
5:06am 2 6 mph 1014.2mb 62f 55f
5:00am 2 5 mph 1014.2mb 62f 55f
4:54am 3 5 mph 1014.1mb 62f 55f
4:48am 3 5 mph 1014.1mb 62f 55f
4:42am 5 6 mph 1014.1mb 62f 55f
4:36am 5 6 mph 1014.1mb 62f 55f
4:30am 5 7 mph 1014.1mb 62f 55f
4:24am 6 7 mph 1014mb 62f 55f
4:18am 6 6 mph 1014.1mb 62f 55f
4:12am 5 8 mph 1014.1mb 62f 55f
4:06am 3 6 mph 1014.1mb 62f 55f
4:00am 2 3 mph 1014.1mb 62f 55f
3:12am 3 5 mph 1014.2mb 62f 55f
3:06am 3 6 mph 1014.2mb 62f 55f
3:00am 5 6 mph 1014.3mb 62f 55f
2:54am 3 6 mph 1014.3mb 62f 55f
2:48am 5 6 mph 1014.4mb 62f 55f
2:42am 3 6 mph 1014.4mb 62f 55f
2:36am 2 3 mph 1014.4mb 62f 55f
2:30am 2 5 mph 1014.4mb 62f 55f
2:24am 3 5 mph 1014.4mb 62f 55f
2:18am 3 6 mph 1014.4mb 62f 55f
2:12am 5 6 mph 1014.4mb 62f 55f
2:06am 5 7 mph 1014.5mb 62f 55f
2:00am 5 7 mph 1014.5mb 62f 55f
1:54am 6 8 mph 1014.5mb 62f 55f
1:48am 6 8 mph 1014.5mb 62f 55f
1:42am 6 8 mph 1014.5mb 62f 55f
1:36am 5 8 mph 1014.5mb 62f 55f
1:30am 6 8 mph 1014.5mb 62f 55f
1:24am 6 8 mph 1014.5mb 62f 55f
1:18am 6 10 mph 1014.5mb - -
1:12am 6 7 mph 1014.5mb 62f 56f
1:06am 5 7 mph 1014.4mb 62f 55f
1:00am 5 8 mph 1014.4mb 62f 55f
12:54am 6 7 mph 1014.4mb 62f 55f
12:48am 5 8 mph 1014.4mb 62f 55f
12:42am 6 7 mph 1014.4mb 62f 55f
12:36am 5 6 mph 1014.3mb 62f 55f
12:30am 5 6 mph 1014.3mb 62f 55f
12:24am 5 6 mph 1014.2mb 62f 55f
12:18am 5 7 mph 1014.2mb 62f -
12:12am 5 6 mph 1014.2mb 62f 56f
12:06am 6 7 mph 1014.2mb 62f 55f
12:00am 5 7 mph - - -